Flag for Austria Weather past 2 weeks in Waidhofen an der Thaya, Lower Austria, Austria

Now
32 °F

Chilly.


Feels Like: 26 °F
Forecast: 20 / 33 °F
Wind: 6 mph from Northwest

Location: Retz

Current Time: Feb 2, 2015 at 2:55:44 AM

Latest Report: Feb 2, 2015 at 2:00 AM


Visibility: N/A

Pressure: 29.41 "Hg

Humidity: 71%

Dew point: 23 °F

Location of Waidhofen an der ThayaLocation

Historic Weather in Waidhofen an der Thaya — Graph

°F

Waidhofen an der Thaya temperature yesterday

Maximum temperature yesterday: 37 °F (at 3:00 PM)
Minimum temperature yesterday: 26 °F (at 8:00 AM)
Average temperature yesterday: 31 °F

Past Weeks' High & Low Weather Summary

 TemperatureHumidityPressure
High42 °F (Jan 23, 2:00 PM)100% (Jan 20, 3:00 PM)30.35 "Hg (Jan 20, 3:00 PM)
Low26 °F (Feb 1, 8:00 AM)57% (Jan 31, 4:00 PM)28.82 "Hg (Jan 30, 2:00 PM)
Average34 °F86%29.80 "Hg
* Reported Jan 18 1:00 AM — Feb 2 1:00 AM, Waidhofen an der Thaya, Weather by CustomWeather, © 2014

Note: Actual official high and low records may vary slightly from our data, if they occured in-between our weather recording intervals... More about our weather records

Advertising

Waidhofen an der Thaya weather history for previous 24 hours

 ConditionsComfort  
Time TempWeatherWind HumidityBarometerVisibility
1:00 AM
Feb 2
33 °FChilly.6 mph69%29.41 "HgN/A
12:00 AM34 °FChilly.5 mph72%29.41 "HgN/A
11:00 PM
Feb 1
32 °FChilly.2 mph85%29.41 "HgN/A
10:00 PM31 °FChilly.1 mph92%29.41 "HgN/A
9:00 PM31 °FChilly.1 mph93%29.38 "HgN/A
8:00 PM31 °FChilly.1 mph94%29.38 "HgN/A
7:00 PM31 °FOvercast.1 mph92%29.35 "Hg3 mi
6:00 PM32 °FChilly.2 mph91%29.35 "HgN/A
5:00 PM35 °FChilly.1 mph81%29.32 "HgN/A
4:00 PM37 °FChilly.1 mph77%29.32 "HgN/A
3:00 PM37 °FChilly.2 mph76%29.29 "HgN/A
2:00 PM36 °FChilly.2 mph77%29.29 "HgN/A
1:00 PM34 °FPassing clouds.1 mph83%29.32 "Hg11 mi
12:00 PM33 °FChilly.2 mph82%29.32 "HgN/A
11:00 AM31 °FChilly.2 mph86%29.32 "HgN/A
10:00 AM29 °FChilly.1 mph86%29.29 "HgN/A
9:00 AM26 °FChilly.2 mph90%29.29 "HgN/A
8:00 AM26 °FChilly.No wind88%29.29 "HgN/A
7:00 AM27 °FPassing clouds.1 mph86%29.26 "Hg4 mi
6:00 AM27 °FChilly.2 mph88%29.26 "HgN/A
5:00 AM27 °FChilly.3 mph86%29.26 "HgN/A
4:00 AM28 °FChilly.3 mph85%29.23 "HgN/A
3:00 AM30 °FChilly.No wind79%29.23 "HgN/A
2:00 AM32 °FChilly.3 mph71%29.23 "HgN/A
Weather by CustomWeather, © 2014

See weather overviewHow to use our weather pages